Location: State Camp
(41.2367°N, 77.7828°W)
Time: 20:26:45
(UTC-05:00)

Daily predictions for brighter satellites

Satellite Brightness Start Highest point End
(mag) Time Altitude Azimuth Time Altitude Azimuth Time Altitude Azimuth
Cosmos 2219 3.9 17:05:14 10° NNW 17:10:46 62° WSW 17:16:18 10° S
SJ-12 4.0 17:11:38 10° SSE 17:15:44 89° WSW 17:19:52 10° NNW
Cosmos 389 Rocket 2.4 17:12:52 10° N 17:16:20 88° W 17:19:47 10° S
ALOS 3.8 17:14:34 10° E 17:17:14 15° ENE 17:19:54 10° NNE
Cosmos 1271 Rocket 2.6 17:14:06 10° N 17:17:55 70° E 17:21:46 10° SSE
Cosmos 1980 Rocket 3.8 17:16:05 10° SE 17:19:24 16° E 17:22:45 10° ENE
NOSS 3-2 (A) 4.2 17:14:47 10° NNW 17:22:03 51° NE 17:29:57 10° ESE
SJ-7 4.3 17:21:03 10° SSE 17:25:00 66° ENE 17:28:58 10° N
IDEFIX/ARIANE 42P 4.4 17:21:46 10° SSW 17:26:30 36° W 17:31:16 10° NNW
Cosmos 2297 Rocket 2.2 17:23:22 10° NNW 17:28:59 62° ENE 17:34:35 10° SE
Cosmos 1656 3.9 17:23:49 10° S 17:29:12 52° ESE 17:34:33 10° NNE
NOSS 3-2 (C) 4.3 17:23:10 10° NNW 17:30:18 45° NE 17:38:03 10° ESE
Cosmos 1666 2.7 17:29:42 10° N 17:33:28 83° W 17:37:11 10° S
Cosmos 2266 Rocket 4.1 17:28:22 10° N 17:34:19 53° E 17:40:20 10° SSE
ATLAS 3B R/B 2.6 17:27:49 10° NW 17:34:32 88° NE 17:41:04 10° SSE
USA 161 3.9 17:33:54 10° NNW 17:36:24 25° WNW 17:38:57 10° SW
ATLAS 2AS CENTAUR R/B 3.6 17:28:46 10° SW 17:36:27 60° NW 17:44:32 10° NNE
Cosmos 1484 Rocket 2.9 17:34:19 10° SSE 17:38:20 90° SSW 17:42:23 10° NNW
Cosmos 1655 Rocket 4.5 17:33:12 10° NNW 17:39:33 69° W 17:45:54 10° S
Cosmos 1455 Rocket 3.2 17:35:19 10° N 17:39:44 82° W 17:44:06 10° S
Atlas Centaur 2 4.2 17:36:24 10° WSW 17:40:41 20° SSW 17:44:18 10° SSE
Cosmos 158 Rocket 3.9 17:38:55 10° NNW 17:44:00 89° ENE 17:48:57 10° SSE
Cosmos 1544 Rocket 4.0 17:39:49 10° NNW 17:44:09 67° W 17:48:25 10° S
DELTA 2 R/B (1) 3.7 17:40:15 10° W 17:45:49 75° S 17:51:01 12° E
USA 116 3.2 17:44:08 10° NNE 17:47:13 52° E 17:50:14 10° S
USA 215 3.3 17:41:14 10° SE 17:47:47 89° NE 17:54:22 10° NW
YAOGAN 1 2.6 17:46:02 10° SSE 17:50:15 54° ENE 17:54:29 10° N
IRS-1A Rocket 4.2 17:45:27 10° SSE 17:50:58 67° ENE 17:56:27 10° N
PSLV R/B 3.0 17:47:49 10° W 17:51:00 87° S 17:52:53 22° E
MINOTAUR IV R/B 4.5 17:47:07 10° NNW 17:51:36 70° ENE 17:56:03 10° SSE
Abrixas rocket 3.8 17:50:25 10° WNW 17:53:02 22° N 17:54:22 17° NNE
CSL-04 Debris 4.5 17:47:54 10° S 17:53:15 71° WSW 17:58:40 10° NNW
BREEZE-M DEB (TANK) 3.9 17:51:43 10° NW 17:54:28 43° NNE 17:59:36 13° E
Meteor 2-4 Rocket 3.6 17:51:06 10° S 17:56:32 86° W 18:01:56 10° N
NOSS 3-4 (A) 3.6 17:51:49 10° SSW 17:57:52 58° ESE 18:02:56 16° NE
NOSS 3-4 (C) 3.6 17:51:55 10° SSW 17:57:57 57° ESE 18:02:59 16° NE
SL-16 R/B 4.2 18:00:27 10° ESE 18:00:36 10° ESE 18:00:36 10° ESE
METEOR-M 4.0 17:57:27 10° SSE 18:02:44 70° ENE 18:08:04 10° N
ISS -1.0 18:00:33 10° W 18:03:06 21° SW 18:05:37 10° S
Cosmos 2263 Rocket 4.1 18:01:04 10° NNE 18:01:52 11° NNE 18:01:52 11° NNE
Cosmos 724 4.4 17:57:42 10° NNW 18:03:31 80° WSW 18:09:19 10° SSE
FENGYUN 3A 3.9 17:58:50 10° SE 18:03:53 44° ENE 18:08:56 10° N
Cosmos 2369 4.0 18:00:10 10° SSW 18:05:48 69° WNW 18:11:31 10° NNE
Cosmos 2278 3.9 18:00:19 10° SSW 18:05:58 72° WNW 18:11:42 10° NNE
Cosmos 2322 Rocket 4.2 18:04:28 10° ESE 18:04:44 10° ESE 18:04:44 10° ESE
COSMO-SKYMED 1 2.6 18:02:50 10° NNE 18:07:08 58° E 18:11:24 10° S
RESURS DK-1 3.5 18:04:19 10° SSE 18:07:37 23° ESE 18:07:48 23° ESE
SJ 16-02 1.9 18:04:21 10° SSW 18:08:40 59° WNW 18:13:03 10° N
Meteor 1-28 Rocket 4.1 18:06:17 10° N 18:09:56 49° WNW 18:13:35 10° SSW
CENTAUR R/B 3.5 18:06:28 10° NNW 18:13:45 40° NE 18:19:24 18° ESE
Meteor 2-11 Rocket 4.4 18:15:00 10° S 18:21:04 68° E 18:27:11 10° NNE
Cosmos 1697 Rocket 2.7 18:15:34 10° SSW 18:21:14 87° WNW 18:25:53 16° NNE
NOSS 2-2 (E) 4.1 18:17:48 10° S 18:21:20 34° ESE 18:21:38 33° ESE
Cosmos 1515 3.6 18:18:47 10° S 18:22:33 90° ESE 18:25:17 18° N
CZ-2C R/B 4.4 18:19:18 10° N 18:23:55 56° WNW 18:28:33 10° SSW
EO 1 Del DPAF 3.1 18:22:11 27° NNE 18:24:09 72° ESE 18:27:57 10° S
CZ-4 R/B 2.9 18:22:36 10° SSW 18:26:12 36° W 18:29:53 10° NNW
NOSS 2-2 (C) 4.1 18:24:45 10° S 18:28:01 33° SE 18:28:01 33° SE
SPOT 3 Rocket 3.4 18:23:45 10° SSE 18:28:54 74° ENE 18:34:04 10° N
Meteor 1-15 Rocket 4.4 18:23:38 10° NNW 18:29:35 81° W 18:35:27 10° S
Cosmos 1553 Rocket 4.3 18:24:21 10° SSE 18:30:22 44° E 18:34:27 20° NNE
Cosmos 1025 Rocket 2.9 18:26:47 10° S 18:31:05 90° NW 18:34:10 19° N
ERS-2 2.2 18:33:19 10° S 18:36:58 74° WSW 18:40:39 10° NNW
Okean 1-7 Rocket 3.4 18:32:55 10° S 18:37:17 79° E 18:39:23 31° NNE
Cosmos 494 Rocket 3.9 18:33:24 10° NNW 18:38:41 74° ENE 18:43:55 10° SSE
Thor Agena Rocket 4.3 18:40:38 33° ESE 18:40:38 33° ESE 18:44:28 10° SSE
Cosmos 2084 3.5 18:36:42 10° SW 18:40:50 69° NW 18:41:44 50° N
Gblst 52 Del rocket 4.2 18:35:27 10° NW 18:41:08 83° NE 18:44:12 32° ESE
Cosmos 2251 Rocket 3.6 18:36:07 10° N 18:41:16 51° ENE 18:42:21 44° ESE
Cosmos 1745 Rocket 4.2 18:37:47 10° N 18:43:41 44° ENE 18:49:37 10° SSE
Cosmos 2227 Rocket 4.4 18:41:40 10° NW 18:46:16 26° WSW 18:50:49 10° SSW
Okean 2 4.0 18:44:17 10° SSW 18:48:17 54° W 18:50:50 21° N
ALOS 2.8 18:49:34 10° S 18:54:10 59° W 18:58:47 10° NNW
FengYun 1-2 T 4.2 18:48:43 10° SSE 18:54:15 65° ENE 18:59:51 10° N
DNEPR-1 R/B 4.1 18:50:28 10° NNW 18:55:41 87° ENE 18:59:46 23° SSE
Cosmos 1980 Rocket 2.4 18:57:04 10° SSW 19:02:43 70° WNW 19:05:03 36° N
Cosmos 1066 Rocket 4.0 19:00:26 10° S 19:05:58 87° W 19:07:39 46° N
SL-8 R/B 4.3 19:01:24 10° SW 19:05:15 46° S 19:05:15 46° S
DELTA 2 R/B (1) 4.3 19:26:43 10° W 19:31:48 46° SSW 19:31:48 46° SSW
Cosmos 2344 3.7 19:24:41 10° SSW 19:31:20 56° SE 19:31:20 56° SE
Lacrosse 5 rocket 3.9 19:28:42 10° SSW 19:29:24 15° SSW 19:29:24 15° SSW
S3M 4.4 19:36:36 10° SSW 19:42:35 57° W 19:44:08 45° NNW
SL-16 R/B 3.5 19:39:42 10° SSW 19:42:32 31° SSW 19:42:32 31° SSW
Cosmos 2263 Rocket 4.3 19:42:37 10° NNW 19:43:35 15° NNW 19:43:35 15° NNW
Cosmos 2322 Rocket 3.7 19:44:07 10° SSW 19:46:37 28° SSW 19:46:37 28° SSW
CENTAUR R/B 3.5 19:57:02 10° NW 20:04:53 59° WSW 20:06:43 50° SSW
